Houston / Dunn Helistop, TX
on Monday, June 19, 2017

Monday
       
Previous Day Next Day
Daily Summary
 ActualAverage (KHOU)Record (KHOU)
Temperature
Mean Temperature °F °C °F °C  
Max Temperature 98°F 37°C 88°F 31°C 101°F 38°C (1934)
Min Temperature 78°F 26°C 72°F 22°C 64°F 17°C (1912)
Cooling Degree Days 23    
Growing Degree Days38 (Base °F °C )  
Moisture
Dew Point 72°F 22°C   
Average Humidity 65    
Maximum Humidity 89    
Minimum Humidity 35    
Precipitation
Precipitation 0.00 in / 0.00 cm in / cm in / cm ()
Wind
Wind Speed 4 mph / 6 km/h   
Max Wind Speed 12 mph / 19 km/h   
Max Gust Speed mph / km/h   
Visibility 10 miles / 16 kilometers   
Events     
Averages and records for this station are not official NWS values.
Key: T is trace of precipitation, MM is missing value
Source: NWS Daily Summary
Seasonal Weather Averages
Time(CDT)TemperatureDew PointHumidity Pressure Visibility Wind DirectionWind SpeedGust SpeedPrecipitationEvents Conditions
12:15 AM 80.6°F 27.0°C 75.2°F 24.0°C 84% 29.85 in / 1010.7 hPa 10.0 miles / 16.1 kilometers SE 5.8 mph / 9.3 km/h - N/A   Clear
12:35 AM 80.6°F 27.0°C 75.2°F 24.0°C 84% 29.84 in / 1010.4 hPa 10.0 miles / 16.1 kilometers SSE 4.6 mph / 7.4 km/h - N/A   Clear
12:55 AM 80.6°F 27.0°C 75.2°F 24.0°C 84% 29.84 in / 1010.4 hPa 10.0 miles / 16.1 kilometers SSE 8.1 mph / 13.0 km/h - N/A   Clear
1:35 AM 80.6°F 27.0°C 75.2°F 24.0°C 84% 29.84 in / 1010.4 hPa 10.0 miles / 16.1 kilometers SSE 3.5 mph / 5.6 km/h - N/A   Clear
1:55 AM 80.6°F 27.0°C 75.2°F 24.0°C 84% 29.84 in / 1010.4 hPa 10.0 miles / 16.1 kilometers SE 6.9 mph / 11.1 km/h - N/A   Clear
2:15 AM 80.6°F 27.0°C 75.2°F 24.0°C 84% 29.84 in / 1010.4 hPa 10.0 miles / 16.1 kilometers SE 6.9 mph / 11.1 km/h - N/A   Clear
2:35 AM 80.6°F 27.0°C 75.2°F 24.0°C 84% 29.84 in / 1010.4 hPa 10.0 miles / 16.1 kilometers SE 6.9 mph / 11.1 km/h - N/A   Clear
2:55 AM 80.6°F 27.0°C 75.2°F 24.0°C 84% 29.85 in / 1010.7 hPa 10.0 miles / 16.1 kilometers SE 5.8 mph / 9.3 km/h - N/A   Clear
3:15 AM 80.6°F 27.0°C 75.2°F 24.0°C 84% 29.85 in / 1010.7 hPa 10.0 miles / 16.1 kilometers SE 5.8 mph / 9.3 km/h - N/A   Clear
3:35 AM 80.6°F 27.0°C 75.2°F 24.0°C 84% 29.85 in / 1010.7 hPa 10.0 miles / 16.1 kilometers SSE 5.8 mph / 9.3 km/h - N/A   Clear
3:55 AM 78.8°F 26.0°C 75.2°F 24.0°C 89% 29.86 in / 1011.1 hPa 10.0 miles / 16.1 kilometers SE 3.5 mph / 5.6 km/h - N/A   Clear
4:15 AM 78.8°F 26.0°C 75.2°F 24.0°C 89% 29.86 in / 1011.1 hPa 10.0 miles / 16.1 kilometers SE 3.5 mph / 5.6 km/h - N/A   Partly Cloudy
4:35 AM 78.8°F 26.0°C 75.2°F 24.0°C 89% 29.86 in / 1011.1 hPa 10.0 miles / 16.1 kilometers SE 3.5 mph / 5.6 km/h - N/A   Clear
4:55 AM 78.8°F 26.0°C 75.2°F 24.0°C 89% 29.86 in / 1011.1 hPa 10.0 miles / 16.1 kilometers ESE 3.5 mph / 5.6 km/h - N/A   Partly Cloudy
5:15 AM 78.8°F 26.0°C 75.2°F 24.0°C 89% 29.86 in / 1011.1 hPa 10.0 miles / 16.1 kilometers SSE 4.6 mph / 7.4 km/h - N/A   Partly Cloudy
5:35 AM 78.8°F 26.0°C 75.2°F 24.0°C 89% 29.86 in / 1011.1 hPa 10.0 miles / 16.1 kilometers SE 3.5 mph / 5.6 km/h - N/A   Partly Cloudy
5:55 AM 78.8°F 26.0°C 75.2°F 24.0°C 89% 29.86 in / 1011.1 hPa 10.0 miles / 16.1 kilometers SE 5.8 mph / 9.3 km/h - N/A   Clear
6:15 AM 78.8°F 26.0°C 75.2°F 24.0°C 89% 29.87 in / 1011.4 hPa 10.0 miles / 16.1 kilometers SE 3.5 mph / 5.6 km/h - N/A   Clear
6:35 AM 78.8°F 26.0°C 75.2°F 24.0°C 89% 29.88 in / 1011.7 hPa 10.0 miles / 16.1 kilometers SE 3.5 mph / 5.6 km/h - N/A   Clear
6:55 AM 78.8°F 26.0°C 73.4°F 23.0°C 83% 29.89 in / 1012.1 hPa 10.0 miles / 16.1 kilometers Calm Calm - N/A   Clear
7:15 AM 78.8°F 26.0°C 73.4°F 23.0°C 83% 29.89 in / 1012.1 hPa 10.0 miles / 16.1 kilometers Calm Calm - N/A   Clear
7:35 AM 80.6°F 27.0°C 73.4°F 23.0°C 79% 29.90 in / 1012.4 hPa 10.0 miles / 16.1 kilometers Calm Calm - N/A   Partly Cloudy
7:55 AM 82.4°F 28.0°C 75.2°F 24.0°C 79% 29.91 in / 1012.8 hPa 10.0 miles / 16.1 kilometers Calm Calm - N/A   Mostly Cloudy
8:15 AM 82.4°F 28.0°C 73.4°F 23.0°C 74% 29.91 in / 1012.8 hPa 10.0 miles / 16.1 kilometers Calm Calm - N/A   Overcast
8:35 AM 84.2°F 29.0°C 73.4°F 23.0°C 70% 29.90 in / 1012.4 hPa 10.0 miles / 16.1 kilometers SSE 4.6 mph / 7.4 km/h - N/A   Mostly Cloudy
8:55 AM 84.2°F 29.0°C 73.4°F 23.0°C 70% 29.90 in / 1012.4 hPa 10.0 miles / 16.1 kilometers Calm Calm - N/A   Scattered Clouds
9:15 AM 86.0°F 30.0°C 73.4°F 23.0°C 66% 29.91 in / 1012.8 hPa 10.0 miles / 16.1 kilometers Calm Calm - N/A   Scattered Clouds
9:35 AM 86.0°F 30.0°C 71.6°F 22.0°C 62% 29.91 in / 1012.8 hPa 10.0 miles / 16.1 kilometers Calm Calm - N/A   Scattered Clouds
9:55 AM 86.0°F 30.0°C 73.4°F 23.0°C 66% 29.92 in / 1013.1 hPa 10.0 miles / 16.1 kilometers Calm Calm - N/A   Mostly Cloudy
10:15 AM 87.8°F 31.0°C 71.6°F 22.0°C 58% 29.93 in / 1013.4 hPa 10.0 miles / 16.1 kilometers Calm Calm - N/A   Mostly Cloudy
10:35 AM 86.0°F 30.0°C 71.6°F 22.0°C 62% 29.93 in / 1013.4 hPa 10.0 miles / 16.1 kilometers Calm Calm - N/A   Overcast
10:55 AM 89.6°F 32.0°C 69.8°F 21.0°C 52% 29.93 in / 1013.4 hPa 10.0 miles / 16.1 kilometers SSE 3.5 mph / 5.6 km/h - N/A   Scattered Clouds
11:15 AM 91.4°F 33.0°C 69.8°F 21.0°C 49% 29.93 in / 1013.4 hPa 10.0 miles / 16.1 kilometers Calm Calm - N/A   Partly Cloudy
11:35 AM 91.4°F 33.0°C 68.0°F 20.0°C 46% 29.93 in / 1013.4 hPa 10.0 miles / 16.1 kilometers Calm Calm - N/A   Partly Cloudy
12:15 PM 91.4°F 33.0°C 69.8°F 21.0°C 49% 29.94 in / 1013.8 hPa 10.0 miles / 16.1 kilometers Calm Calm - N/A   Mostly Cloudy
12:35 PM 93.2°F 34.0°C 66.2°F 19.0°C 41% 29.93 in / 1013.4 hPa 10.0 miles / 16.1 kilometers NNW 8.1 mph / 13.0 km/h - N/A   Scattered Clouds
12:55 PM 93.2°F 34.0°C 68.0°F 20.0°C 44% 29.92 in / 1013.1 hPa 10.0 miles / 16.1 kilometers NW 6.9 mph / 11.1 km/h - N/A   Partly Cloudy
1:15 PM 95.0°F 35.0°C 68.0°F 20.0°C 41% 29.90 in / 1012.4 hPa 10.0 miles / 16.1 kilometers North 6.9 mph / 11.1 km/h - N/A   Scattered Clouds
1:35 PM 95.0°F 35.0°C 68.0°F 20.0°C 41% 29.89 in / 1012.1 hPa 10.0 miles / 16.1 kilometers Calm Calm - N/A   Partly Cloudy
1:55 PM 95.0°F 35.0°C 66.2°F 19.0°C 39% 29.88 in / 1011.7 hPa 10.0 miles / 16.1 kilometers East 5.8 mph / 9.3 km/h - N/A   Partly Cloudy
2:15 PM 95.0°F 35.0°C 66.2°F 19.0°C 39% 29.88 in / 1011.7 hPa 10.0 miles / 16.1 kilometers North 3.5 mph / 5.6 km/h - N/A   Clear
2:35 PM 98.6°F 37.0°C 66.2°F 19.0°C 35% 29.87 in / 1011.4 hPa 10.0 miles / 16.1 kilometers Calm Calm - N/A   Clear
2:55 PM 98.6°F 37.0°C 68.0°F 20.0°C 37% 29.86 in / 1011.1 hPa 10.0 miles / 16.1 kilometers NE 5.8 mph / 9.3 km/h - N/A   Partly Cloudy
3:35 PM 98.6°F 37.0°C 66.2°F 19.0°C 35% 29.85 in / 1010.7 hPa 10.0 miles / 16.1 kilometers SE 5.8 mph / 9.3 km/h - N/A   Clear
3:55 PM 95.0°F 35.0°C 66.2°F 19.0°C 39% 29.85 in / 1010.7 hPa 10.0 miles / 16.1 kilometers NE 6.9 mph / 11.1 km/h - N/A   Scattered Clouds
4:15 PM 96.8°F 36.0°C 66.2°F 19.0°C 37% 29.85 in / 1010.7 hPa 10.0 miles / 16.1 kilometers East 5.8 mph / 9.3 km/h - N/A   Partly Cloudy
4:35 PM 93.2°F 34.0°C 68.0°F 20.0°C 44% 29.84 in / 1010.4 hPa 10.0 miles / 16.1 kilometers East 5.8 mph / 9.3 km/h - N/A   Mostly Cloudy
4:55 PM 93.2°F 34.0°C 66.2°F 19.0°C 41% 29.83 in / 1010.0 hPa 10.0 miles / 16.1 kilometers East 6.9 mph / 11.1 km/h - N/A   Mostly Cloudy
5:15 PM 93.2°F 34.0°C 66.2°F 19.0°C 41% 29.83 in / 1010.0 hPa 10.0 miles / 16.1 kilometers ENE 9.2 mph / 14.8 km/h - N/A   Mostly Cloudy
5:35 PM 93.2°F 34.0°C 66.2°F 19.0°C 41% 29.84 in / 1010.4 hPa 10.0 miles / 16.1 kilometers NNE 6.9 mph / 11.1 km/h - N/A   Scattered Clouds
5:55 PM 93.2°F 34.0°C 64.4°F 18.0°C 38% 29.83 in / 1010.0 hPa 10.0 miles / 16.1 kilometers East 5.8 mph / 9.3 km/h - N/A   Clear
6:15 PM 95.0°F 35.0°C 64.4°F 18.0°C 36% 29.83 in / 1010.0 hPa 10.0 miles / 16.1 kilometers NE 8.1 mph / 13.0 km/h - N/A   Scattered Clouds
6:35 PM 93.2°F 34.0°C 64.4°F 18.0°C 38% 29.84 in / 1010.4 hPa 10.0 miles / 16.1 kilometers ENE 8.1 mph / 13.0 km/h - N/A   Mostly Cloudy
6:55 PM 93.2°F 34.0°C 68.0°F 20.0°C 44% 29.85 in / 1010.7 hPa 10.0 miles / 16.1 kilometers SSW 8.1 mph / 13.0 km/h - N/A   Overcast
7:15 PM 87.8°F 31.0°C 73.4°F 23.0°C 62% 29.86 in / 1011.1 hPa 10.0 miles / 16.1 kilometers SW 11.5 mph / 18.5 km/h - N/A   Overcast
7:35 PM 86.0°F 30.0°C 71.6°F 22.0°C 62% 29.87 in / 1011.4 hPa 10.0 miles / 16.1 kilometers SSW 6.9 mph / 11.1 km/h - N/A   Mostly Cloudy
7:55 PM 86.0°F 30.0°C 71.6°F 22.0°C 62% 29.87 in / 1011.4 hPa 10.0 miles / 16.1 kilometers SW 4.6 mph / 7.4 km/h - N/A   Mostly Cloudy
8:15 PM 86.0°F 30.0°C 71.6°F 22.0°C 62% 29.87 in / 1011.4 hPa 10.0 miles / 16.1 kilometers SSW 6.9 mph / 11.1 km/h - N/A   Scattered Clouds
8:35 PM 86.0°F 30.0°C 71.6°F 22.0°C 62% 29.88 in / 1011.7 hPa 10.0 miles / 16.1 kilometers Calm Calm - N/A   Mostly Cloudy
9:15 PM 84.2°F 29.0°C 73.4°F 23.0°C 70% 29.88 in / 1011.7 hPa 10.0 miles / 16.1 kilometers SSE 4.6 mph / 7.4 km/h - N/A   Clear
9:35 PM 84.2°F 29.0°C 73.4°F 23.0°C 70% 29.89 in / 1012.1 hPa 10.0 miles / 16.1 kilometers SSE 4.6 mph / 7.4 km/h - N/A   Clear
9:55 PM 84.2°F 29.0°C 73.4°F 23.0°C 70% 29.89 in / 1012.1 hPa 10.0 miles / 16.1 kilometers Calm Calm - N/A   Clear
10:15 PM 84.2°F 29.0°C 73.4°F 23.0°C 70% 29.90 in / 1012.4 hPa 10.0 miles / 16.1 kilometers Calm Calm - N/A   Clear
10:35 PM 84.2°F 29.0°C 73.4°F 23.0°C 70% 29.90 in / 1012.4 hPa 10.0 miles / 16.1 kilometers Calm Calm - N/A   Partly Cloudy
11:15 PM 82.4°F 28.0°C 73.4°F 23.0°C 74% 29.92 in / 1013.1 hPa 10.0 miles / 16.1 kilometers West 4.6 mph / 7.4 km/h - N/A   Partly Cloudy
11:35 PM 82.4°F 28.0°C 73.4°F 23.0°C 74% 29.92 in / 1013.1 hPa 10.0 miles / 16.1 kilometers Calm Calm - N/A   Clear
11:55 PM 82.4°F 28.0°C 73.4°F 23.0°C 74% 29.92 in / 1013.1 hPa 10.0 miles / 16.1 kilometers West 4.6 mph / 7.4 km/h - N/A   Partly Cloudy

Astronomy

Sunrise: 06:21 AM (CDT) Moon Rise: 02:47 AM (CDT) 6 / 19
Sunset: 08:24 PM (CDT) Moon Set: 03:38 PM (CDT) 6 / 19
Moon Phase
Jun. 19 Jun. 24 Jul. 01 Jul. 09 Jul. 16
View the Full Star Chart!
Powered by Weather Underground, Inc.